Tracking 29892 objects as of 21-Nov-2024
HD Live streaming from Space Station
objects crossing your sky now

COSMOS 970 DEB

Track COSMOS 970 DEB now!
10-day predictions


NORAD ID: 10572
Int'l Code: 1977-121P
Perigee: 842.7 km
Apogee: 1,105.3 km
Inclination: 65.0 °
Period: 104.4 minutes
Semi major axis: 7345 km
RCS: 0.1548 m2 (medium)
Launch date: December 21, 1977
Source: Commonwealth of Independent States (former USSR) (CIS)
Launch site: TYURATAM MISSILE AND SPACE COMPLEX (TTMTR)

Note: This is SATELLITE DEBRIS
Your satellite tracking list
Your tracking list is empty




NASA's NSSDC Master Catalog

Two Line Element Set (TLE):
1 10572U 77121P   24325.89424814  .00000463  00000-0  47631-3 0  9996
2 10572  65.0311 138.6526 0178792 175.0037 185.2861 13.79156349356408
Source of the keplerian elements: AFSPC